TimeEDT,TemperatureF,Dew PointF,Humidity,Sea Level PressureIn,VisibilityMPH,Wind Direction,Wind SpeedMPH,Gust SpeedMPH,PrecipitationIn,Events,Conditions,WindDirDegrees,DateUTC
12:15 AM,72.0,68.4,88,29.90,10.0,Calm,Calm,-,N/A,,Clear,0,2013-06-12 04:15:00
12:35 AM,71.2,68.4,91,29.90,10.0,Calm,Calm,-,N/A,,Clear,0,2013-06-12 04:35:00
12:55 AM,71.4,67.5,87,29.90,10.0,West,4.6,-,N/A,,Clear,270,2013-06-12 04:55:00
1:15 AM,71.6,67.5,87,29.90,10.0,Calm,Calm,-,N/A,,Clear,0,2013-06-12 05:15:00
1:35 AM,67.6,66.2,95,29.90,10.0,Calm,Calm,-,N/A,,Clear,0,2013-06-12 05:35:00
1:55 AM,67.3,66.9,99,29.90,10.0,Calm,Calm,-,N/A,,Clear,0,2013-06-12 05:55:00
2:15 AM,66.0,65.7,99,29.89,10.0,Calm,Calm,-,N/A,,Clear,0,2013-06-12 06:15:00
2:35 AM,68.5,68.2,99,29.89,10.0,Calm,Calm,-,N/A,,Clear,0,2013-06-12 06:35:00
2:55 AM,68.2,67.6,98,29.90,10.0,Calm,Calm,-,N/A,,Clear,0,2013-06-12 06:55:00
3:15 AM,68.9,67.3,95,29.89,10.0,Calm,Calm,-,N/A,,Clear,0,2013-06-12 07:15:00
3:35 AM,70.2,67.3,91,29.89,10.0,Calm,Calm,-,N/A,,Clear,0,2013-06-12 07:35:00
3:55 AM,69.1,66.4,91,29.90,10.0,WSW,3.5,-,N/A,,Clear,240,2013-06-12 07:55:00
4:15 AM,69.3,66.6,91,29.90,10.0,West,4.6,-,N/A,,Clear,260,2013-06-12 08:15:00
4:35 AM,69.1,66.9,93,29.91,10.0,Calm,Calm,-,N/A,,Clear,0,2013-06-12 08:35:00
4:55 AM,68.7,66.2,92,29.91,10.0,West,4.6,-,N/A,,Clear,260,2013-06-12 08:55:00
5:15 AM,67.5,66.4,96,29.91,10.0,WSW,4.6,-,N/A,,Clear,250,2013-06-12 09:15:00
5:35 AM,67.5,66.4,96,29.91,10.0,Calm,Calm,-,N/A,,Clear,0,2013-06-12 09:35:00
5:55 AM,67.3,66.6,98,29.91,10.0,SW,4.6,-,N/A,,Clear,220,2013-06-12 09:55:00
6:15 AM,68.4,66.2,93,29.91,10.0,Calm,Calm,-,N/A,,Clear,0,2013-06-12 10:15:00
6:35 AM,68.5,66.9,95,29.92,10.0,Calm,Calm,-,N/A,,Clear,0,2013-06-12 10:35:00
6:55 AM,70.2,66.9,89,29.92,10.0,West,3.5,-,N/A,,Clear,270,2013-06-12 10:55:00
7:15 AM,71.4,67.6,88,29.92,10.0,Calm,Calm,-,N/A,,Clear,0,2013-06-12 11:15:00
7:35 AM,72.9,67.3,83,29.91,10.0,WSW,3.5,-,N/A,,Clear,250,2013-06-12 11:35:00
7:55 AM,74.1,67.6,80,29.91,10.0,SW,4.6,-,N/A,,Clear,230,2013-06-12 11:55:00
8:15 AM,75.2,68.4,79,29.92,10.0,SW,5.8,-,N/A,,Clear,230,2013-06-12 12:15:00
8:35 AM,76.1,68.4,77,29.91,10.0,WSW,4.6,-,N/A,,Clear,250,2013-06-12 12:35:00
8:55 AM,77.5,69.3,76,29.91,10.0,WSW,4.6,-,N/A,,Clear,250,2013-06-12 12:55:00
9:15 AM,79.0,69.3,72,29.91,10.0,WSW,4.6,-,N/A,,Clear,250,2013-06-12 13:15:00
9:35 AM,80.2,70.2,71,29.91,10.0,SW,4.6,-,N/A,,Clear,230,2013-06-12 13:35:00
9:55 AM,81.3,70.7,70,29.91,10.0,WSW,4.6,-,N/A,,Clear,250,2013-06-12 13:55:00
10:15 AM,82.4,72.0,71,29.91,10.0,WSW,5.8,-,N/A,,Clear,240,2013-06-12 14:15:00
10:35 AM,83.5,71.2,66,29.91,10.0,WSW,10.4,-,N/A,,Clear,240,2013-06-12 14:35:00
10:55 AM,84.2,71.1,65,29.91,10.0,WSW,9.2,-,N/A,,Clear,240,2013-06-12 14:55:00
11:15 AM,84.7,71.8,65,29.91,10.0,SW,6.9,-,N/A,,Clear,230,2013-06-12 15:15:00
11:35 AM,85.1,71.6,64,29.90,10.0,SW,9.2,-,N/A,,Clear,230,2013-06-12 15:35:00
11:55 AM,85.6,71.4,62,29.88,10.0,WSW,6.9,-,N/A,,Clear,250,2013-06-12 15:55:00
12:15 PM,86.5,71.8,61,29.88,10.0,SW,8.1,-,N/A,,Clear,220,2013-06-12 16:15:00
12:35 PM,86.9,71.4,60,29.88,10.0,SW,9.2,-,N/A,,Clear,230,2013-06-12 16:35:00
12:55 PM,87.4,72.1,60,29.88,10.0,WSW,5.8,-,N/A,,Clear,250,2013-06-12 16:55:00
1:15 PM,87.6,71.8,59,29.88,10.0,West,9.2,-,N/A,,Clear,260,2013-06-12 17:15:00
1:35 PM,87.8,71.6,58,29.88,10.0,West,8.1,-,N/A,,Scattered Clouds,260,2013-06-12 17:35:00
1:55 PM,88.7,71.8,57,29.87,10.0,West,5.8,-,N/A,,Scattered Clouds,260,2013-06-12 17:55:00
2:15 PM,88.3,69.6,54,29.87,10.0,West,11.5,-,N/A,,Mostly Cloudy,270,2013-06-12 18:15:00
2:35 PM,89.1,70.2,53,29.86,10.0,West,10.4,-,N/A,,Scattered Clouds,280,2013-06-12 18:35:00
2:55 PM,88.0,69.8,55,29.86,10.0,West,8.1,-,N/A,,Mostly Cloudy,280,2013-06-12 18:55:00
3:15 PM,89.4,70.9,54,29.86,10.0,West,8.1,-,N/A,,Scattered Clouds,270,2013-06-12 19:15:00
3:35 PM,88.7,70.7,55,29.85,10.0,West,10.4,-,N/A,,Scattered Clouds,260,2013-06-12 19:35:00
3:55 PM,88.7,70.5,55,29.85,10.0,WSW,10.4,-,N/A,,Scattered Clouds,250,2013-06-12 19:55:00
4:15 PM,89.4,72.0,56,29.85,10.0,WSW,8.1,-,N/A,,Mostly Cloudy,240,2013-06-12 20:15:00
4:35 PM,88.9,71.2,56,29.85,10.0,WSW,8.1,-,N/A,,Mostly Cloudy,240,2013-06-12 20:35:00
4:55 PM,88.7,71.4,56,29.84,10.0,WSW,8.1,-,N/A,,Scattered Clouds,240,2013-06-12 20:55:00
5:15 PM,87.8,72.0,59,29.84,10.0,WSW,8.1,-,N/A,,Mostly Cloudy,240,2013-06-12 21:15:00
5:35 PM,86.9,72.7,62,29.84,10.0,SW,3.5,-,N/A,,Mostly Cloudy,220,2013-06-12 21:35:00
5:55 PM,88.3,73.9,62,29.83,10.0,WSW,5.8,-,N/A,,Scattered Clouds,240,2013-06-12 21:55:00
6:15 PM,88.3,72.9,60,29.83,10.0,WSW,8.1,-,N/A,,Clear,250,2013-06-12 22:15:00
6:35 PM,88.0,73.0,61,29.82,10.0,SW,5.8,-,N/A,,Clear,230,2013-06-12 22:35:00
6:55 PM,87.4,72.7,61,29.82,10.0,WSW,4.6,-,N/A,,Clear,240,2013-06-12 22:55:00
7:15 PM,86.2,73.2,65,29.83,10.0,WSW,6.9,-,N/A,,Clear,240,2013-06-12 23:15:00
7:35 PM,85.6,73.2,66,29.83,10.0,SW,3.5,-,N/A,,Clear,230,2013-06-12 23:35:00
7:55 PM,84.6,72.5,67,29.83,10.0,SW,4.6,-,N/A,,Clear,220,2013-06-12 23:55:00
8:15 PM,83.1,73.2,72,29.83,10.0,Calm,Calm,-,N/A,,Clear,0,2013-06-13 00:15:00
8:35 PM,81.5,73.6,77,29.84,10.0,Calm,Calm,-,N/A,,Clear,0,2013-06-13 00:35:00
8:55 PM,79.7,74.1,83,29.84,10.0,Calm,Calm,-,N/A,,Clear,0,2013-06-13 00:55:00
9:15 PM,77.2,74.3,91,29.84,10.0,Calm,Calm,-,N/A,,Clear,0,2013-06-13 01:15:00
9:35 PM,77.9,74.7,90,29.85,10.0,Calm,Calm,-,N/A,,Clear,0,2013-06-13 01:35:00
9:55 PM,76.8,74.5,92,29.86,10.0,Calm,Calm,-,N/A,,Clear,0,2013-06-13 01:55:00
10:15 PM,76.1,74.3,94,29.86,10.0,Calm,Calm,-,N/A,,Clear,0,2013-06-13 02:15:00
10:35 PM,76.5,74.3,93,29.86,10.0,Calm,Calm,-,N/A,,Clear,0,2013-06-13 02:35:00
10:55 PM,76.1,74.3,94,29.84,10.0,Calm,Calm,-,N/A,,Clear,0,2013-06-13 02:55:00
11:15 PM,76.1,73.9,93,29.84,10.0,Calm,Calm,-,N/A,,Clear,0,2013-06-13 03:15:00
11:35 PM,78.4,74.1,87,29.84,10.0,Calm,Calm,-,N/A,,Clear,0,2013-06-13 03:35:00
11:55 PM,77.7,73.9,88,29.84,10.0,Calm,Calm,-,N/A,,Clear,0,2013-06-13 03:55:00